Regional Weather Roundup
Issued by NWS

Home | Current Version | Previous Version | Text Only | Print | Product List | Glossary On
Versions: 1 2 3 4 5 6 7 8 9 10 11 12 13 14 15 16 17 18 19 20 21 22 23 24 25 26 27 28 29 30 31 32 33 34 35 36 37 38 39 40 41 42 43 44 45 46 47 48 49 50
518
ASUS43 KTOP 051559
RWRKS

WEATHER ROUNDUP FOR KANSAS
NATIONAL WEATHER SERVICE GOODLAND KS
1100 AM CDT THU MAY 05 2016

NOTE:  "FAIR" INDICATES FEW OR NO CLOUDS BELOW 12,000 FEET WITH NO
SIGNIFICANT WEATHER AND/OR OBSTRUCTIONS TO VISIBILITY.

KSZ001>006-013>018-027>032-041>047-051700-
NORTHWEST KANSAS

CITY           SKY/WX    TMP DP  RH WIND       PRES   REMARKS
GOODLAND       SUNNY     73  43  33 S16       30.10F
HAYS           SUNNY     70  45  40 S5        30.13S
HILL CITY      SUNNY     72  47  40 SW8       30.12F
RUSSELL        SUNNY     68  44  42 CALM      30.12S
$$

KSZ061>065-074>080-084>089-051700-
SOUTHWEST KANSAS

CITY           SKY/WX    TMP DP  RH WIND       PRES   REMARKS
DODGE CITY     SUNNY    N/A N/A N/A MISG      30.13F
ELKHART          N/A     72  43  35 S14         N/A
GARDEN CITY    SUNNY     72  45  37 S13       30.12F
GREAT BEND     SUNNY     70  41  35 CALM      30.13S
LIBERAL        SUNNY     68  50  52 S10       30.14S
$$

KSZ066>073-081>083-090>101-051700-
SOUTHEAST KANSAS

CITY           SKY/WX    TMP DP  RH WIND       PRES   REMARKS
CHANUTE        SUNNY     70  41  34 NW7       30.10F
COFFEYVILLE    SUNNY     70  46  42 NW7       30.10S
HUTCHINSON     SUNNY     70  43  37 VRB3      30.13F
MEDICINE LODGE   N/A     72  43  35 VRB5      30.13F
NEWTON         SUNNY     70  36  28 N3        30.15S
PARSONS        SUNNY     70  43  37 NW10      30.11S
WICHITA INTL   SUNNY     71  40  32 N5        30.12F
WICHITA JABRA  SUNNY     70  40  33 W3        30.12S
WICHITA MCCONL SUNNY     69  39  32 VRB5      30.12F
WINFIELD       SUNNY     69  45  41 NW3       30.27R
$$

KSZ007>012-019>026-033>040-048>060-102>105-051700-
NORTHEAST KANSAS

CITY           SKY/WX    TMP DP  RH WIND       PRES   REMARKS
CONCORDIA      SUNNY     68  36  30 CALM      30.12S
EMPORIA        SUNNY     69  40  34 NW7       30.11S
LAWRENCE       SUNNY     67  45  45 VRB5      30.10S
MANHATTAN      SUNNY     70  45  40 SE3       30.11F
OLATHE IND     SUNNY     65  44  46 VRB7      30.11R
OLATHE EXE     SUNNY     65  40  39 CALM      30.10R
SALINA         SUNNY     69  45  41 CALM      30.13F
TOPEKA BILLARD SUNNY     69  44  40 W7        30.10S
TOPEKA FORBES  SUNNY     70  43  37 NW7       30.10S
$$




USA.gov is the U.S. government's official web portal to all federal, state and local government web resources and services.